Location: Knowlton
(51.2333°N, 1.2667°E)
Time: 09:18:00
(UTC+00:00)

Cosmos 1455 - Pass Details

Date: 18 April 2021
Orbit: 497 x 521 km, 82.5° (Epoch: 05 May)

Event Time Altitude Azimuth Distance (km) Brightness Sun altitude
Rises 20:50:16 0° 216° (SW) 2,593 5.7 -16.0°
Reaches altitude 10° 20:52:36 10° 228° (SW) 1,710 4.9 -16.3°
Maximum altitude 20:55:53 28° 289° (WNW) 959 4.2 -16.7°
Drops below altitude 10° 20:59:10 10° 350° (N) 1,715 5.6 -17.0°
Sets 21:01:31 0° 3° (N) 2,603 6.4 -17.3°
